FW9243 Weather Reports


Display with metric or nautical units.
time (UTC)temp
F
wind
direction
speed
MPH
gust
MPH
rain 1hr
in
rain 24hr
in
rain mn
in
humidity
%
barometer
mb
20260509062703 52 89 1.0 2.0 0.00 0.00 0.00 89 1005.6
20260509062201 51 223 1.0 1.0 0.00 0.00 0.00 89 1005.6
20260509061922 51 197 1.0 1.0 0.00 0.00 0.00 89 1005.5
20260509061542 51 0 1.0 1.0 0.00 0.00 0.00 100 1006.0
20260509061202 51 223 0.0 2.0 0.00 0.00 0.00 89 1005.4
20260509060703 51 213 1.0 2.0 0.00 0.00 0.00 89 1005.5
20260509060422 51 178 0.0 2.0 0.00 0.00 0.00 88 1005.4
20260509060038 51 0 0.0 1.0 0.00 0.00 0.00 100 1005.9
20260509055703 51 178 0.0 2.0 0.00 0.00 0.00 88 1005.4
20260509055427 51 241 1.0 2.0 0.00 0.00 0.00 88 1005.4
20260509054929 51 223 1.0 2.0 0.00 0.00 0.00 88 1005.3
20260509054539 51 221 1.0 2.0 0.00 0.00 0.00 100 1005.8
20260509054423 51 178 1.0 2.0 0.00 0.00 0.00 88 1005.3
20260509053703 51 234 1.0 2.0 0.00 0.00 0.00 88 1005.3
20260509053202 51 223 1.0 2.0 0.00 0.00 0.00 88 1005.2
20260509053105 51 0 0.0 2.0 0.00 0.00 0.00 100 1005.7
20260509052703 52 206 1.0 2.0 0.00 0.00 0.00 88 1005.3
20260509052203 52 269 1.0 2.0 0.00 0.00 0.00 88 1005.3
20260509051702 52 231 1.0 2.0 0.00 0.00 0.00 88 1005.2
20260509051538 51 0 0.0 1.0 0.00 0.00 0.00 100 1005.7
20260509051202 51 223 1.0 3.0 0.00 0.00 0.00 88 1005.2
20260509050703 51 89 1.0 3.0 0.00 0.00 0.00 89 1005.1
20260509050202 51 152 1.0 2.0 0.00 0.00 0.00 89 1005.2
20260509050037 50 0 0.0 1.0 0.00 0.00 0.00 100 1005.6
20260509045926 51 56 1.0 2.0 0.00 0.00 0.00 90 1005.1
20260509045202 51 178 1.0 1.0 0.00 0.00 0.00 91 1005.3
20260509044701 51 89 0.0 2.0 0.00 0.00 0.00 91 1005.2
20260509044536 50 0 0.0 1.0 0.00 0.00 0.00 100 1005.6
20260509044423 51 178 1.0 2.0 0.00 0.00 0.00 91 1005.2
20260509043702 50 165 0.0 2.0 0.00 0.00 0.00 91 1005.0
20260509043424 50 152 1.0 2.0 0.00 0.00 0.00 92 1005.1
20260509043051 49 108 1.0 2.0 0.00 0.00 0.00 100 1005.6
20260509042927 50 124 1.0 2.0 0.00 0.00 0.00 91 1005.1
20260509042201 50 117 1.0 2.0 0.00 0.00 0.00 91 1005.1
20260509041702 50 68 1.0 2.0 0.00 0.00 0.00 92 1005.1
20260509041554 49 93 1.0 1.0 0.00 0.00 0.00 100 1005.6
20260509041202 50 1 0.0 2.0 0.00 0.00 0.00 91 1005.1
20260509040703 50 45 0.0 2.0 0.00 0.00 0.00 91 1005.3
20260509040202 50 223 0.0 2.0 0.00 0.00 0.00 92 1005.4
20260509040040 49 239 1.0 1.0 0.00 0.00 0.00 100 1005.8
20260509035702 50 241 0.0 2.0 0.00 0.00 0.00 92 1005.4
20260509035202 50 314 0.0 2.0 0.00 0.00 0.00 92 1005.5
20260509034702 50 241 0.0 1.0 0.00 0.00 0.00 92 1005.5
20260509034550 49 0 0.0 1.0 0.00 0.00 0.00 100 1006.0
20260509034202 50 178 0.0 1.0 0.00 0.00 0.00 92 1005.6
20260509033702 50 234 1.0 2.0 0.00 0.00 0.00 92 1005.5
20260509033202 50 45 0.0 2.0 0.00 0.00 0.00 92 1005.4
20260509033036 49 248 1.0 1.0 0.00 0.00 0.00 100 1005.9
20260509032702 50 45 0.0 2.0 0.00 0.00 0.00 92 1005.4
20260509032203 50 269 1.0 2.0 0.00 0.00 0.00 92 1005.5
20260509031702 49 206 0.0 1.0 0.00 0.00 0.00 92 1005.4
20260509031538 49 221 0.0 1.0 0.00 0.00 0.00 100 1005.9
20260509031202 49 178 0.0 1.0 0.00 0.00 0.00 92 1005.5
20260509030701 50 178 1.0 1.0 0.00 0.00 0.00 92 1005.4
20260509030202 49 269 0.0 1.0 0.00 0.00 0.00 92 1005.4
20260509030040 49 0 0.0 0.0 0.00 0.00 0.00 100 1005.8
20260509025702 50 269 0.0 1.0 0.00 0.00 0.00 92 1005.4
20260509025202 49 206 0.0 1.0 0.00 0.00 0.00 91 1005.5
20260509024702 49 269 0.0 1.0 0.00 0.00 0.00 91 1005.5
20260509024539 49 0 0.0 0.0 0.00 0.00 0.00 100 1005.9
20260509024424 49 1 0.0 1.0 0.00 0.00 0.00 91 1005.5
20260509023702 49 28 0.0 1.0 0.00 0.00 0.00 91 1005.5
20260509023425 49 223 0.0 1.0 0.00 0.00 0.00 91 1005.5
20260509023039 49 0 0.0 1.0 0.00 0.00 0.00 100 1006.0
20260509022702 49 223 0.0 1.0 0.00 0.00 0.00 91 1005.5
20260509022201 49 241 0.0 2.0 0.00 0.00 0.00 91 1005.6
20260509021702 49 269 1.0 2.0 0.00 0.00 0.00 91 1005.7
20260509021538 49 265 0.0 1.0 0.00 0.00 0.00 100 1006.2
20260509021202 50 223 1.0 2.0 0.00 0.00 0.00 91 1005.8
20260509020701 49 251 1.0 2.0 0.00 0.00 0.00 91 1005.8
20260509020202 49 223 1.0 1.0 0.00 0.00 0.00 90 1005.8
20260509020034 49 232 0.0 1.0 0.00 0.00 0.00 100 1006.3
20260509015702 49 45 0.0 2.0 0.00 0.00 0.00 90 1005.8
20260509015201 50 269 1.0 2.0 0.00 0.00 0.00 89 1006.0
20260509014702 50 314 1.0 2.0 0.00 0.00 0.00 89 1006.0
20260509014533 50 0 0.0 2.0 0.00 0.00 0.00 100 1006.5
20260509014203 50 237 1.0 2.0 0.00 0.00 0.00 90 1006.1
20260509013923 50 269 0.0 2.0 0.00 0.00 0.00 90 1006.2
20260509013202 50 223 0.0 2.0 0.00 0.00 0.00 91 1006.2
20260509013049 50 178 0.0 1.0 0.00 0.00 0.00 100 1006.6
20260509012702 50 161 1.0 2.0 0.00 0.00 0.00 91 1006.2
20260509012202 50 152 1.0 2.0 0.00 0.00 0.00 90 1006.2
20260509011702 50 51 1.0 2.0 0.00 0.00 0.00 90 1006.2
20260509011539 50 0 0.0 1.0 0.00 0.00 0.00 100 1006.7
20260509011202 50 314 0.0 1.0 0.00 0.00 0.00 90 1006.4
20260509010923 50 135 0.0 1.0 0.00 0.00 0.00 90 1006.4
20260509010201 50 135 0.0 1.0 0.00 0.00 0.00 90 1006.5
20260509010050 50 0 0.0 2.0 0.00 0.00 0.00 100 1006.9
20260509005641 51 45 0.0 1.0 0.00 0.00 0.00 91 1006.6
20260509005138 51 1 0.0 1.0 0.00 0.00 0.00 91 1006.7
20260509004641 51 178 0.0 2.0 0.00 0.00 0.00 90 1006.8
20260509004537 50 0 0.0 1.0 0.00 0.00 0.00 100 1007.2
20260509004138 51 56 1.0 2.0 0.00 0.00 0.00 90 1006.7
20260509003640 51 63 1.0 2.0 0.00 0.00 0.00 90 1006.7
20260509003138 51 1 0.0 1.0 0.00 0.00 0.00 90 1006.8
20260509003037 52 0 0.0 0.0 0.00 0.00 0.00 100 1007.3
20260509002640 51 178 0.0 1.0 0.00 0.00 0.00 90 1006.9
20260509002137 51 45 0.0 1.0 0.00 0.00 0.00 90 1007.0
20260509001641 51 45 0.0 1.0 0.00 0.00 0.00 90 1007.2
20260509001536 52 0 0.0 1.0 0.00 0.00 0.00 100 1007.6
20260509001138 51 178 0.0 1.0 0.00 0.00 0.00 90 1007.2
20260509000640 51 1 0.0 1.0 0.00 0.00 0.00 90 1007.2
20260509000138 51 269 0.0 1.0 0.00 0.00 0.00 89 1007.2
20260509000039 52 0 0.0 1.0 0.00 0.00 0.00 100 1007.7
20260508235640 51 314 0.0 1.0 0.00 0.00 0.00 89 1007.3
20260508235358 51 1 0.0 1.0 0.00 0.00 0.00 89 1007.3
20260508234640 51 269 0.0 1.0 0.00 0.00 0.00 89 1007.3
20260508234623 51 56 0.0 2.0 0.00 0.00 0.00 89 1007.3
20260508234539 52 0 0.0 1.0 0.00 0.00 0.00 100 1007.7
20260508233639 52 56 1.0 2.0 0.00 0.00 0.00 89 1007.3
20260508233136 52 178 1.0 1.0 0.00 0.00 0.00 89 1007.4
20260508233038 52 0 0.0 1.0 0.00 0.00 0.00 100 1007.9
20260508232640 52 178 0.0 1.0 0.00 0.00 0.00 88 1007.4
20260508232136 52 1 0.0 1.0 0.00 0.00 0.00 88 1007.5
20260508231639 52 241 0.0 1.0 0.00 0.00 0.00 88 1007.5
20260508231537 52 0 0.0 0.0 0.00 0.00 0.00 100 1008.0
20260508231137 52 269 0.0 2.0 0.00 0.00 0.00 88 1007.6
20260508230639 52 45 1.0 2.0 0.00 0.00 0.00 88 1007.7
20260508230135 53 152 0.0 1.0 0.00 0.00 0.00 88 1007.7
20260508230046 52 0 0.0 1.0 0.00 0.00 0.00 100 1008.2
20260508225639 53 89 0.0 1.0 0.00 0.00 0.00 88 1007.7
20260508225136 53 45 0.0 1.0 0.00 0.00 0.00 87 1007.7
20260508224639 53 45 0.0 2.0 0.00 0.00 0.00 87 1007.9
20260508224542 52 0 0.0 1.0 0.00 0.00 0.00 100 1008.4
20260508224135 53 1 1.0 2.0 0.00 0.00 0.00 87 1008.0
20260508223638 53 178 0.0 2.0 0.00 0.00 0.00 87 1008.1
20260508223135 53 45 1.0 2.0 0.00 0.00 0.00 86 1008.0
20260508223041 53 51 0.0 2.0 0.00 0.00 0.00 100 1008.5
20260508222639 54 45 0.0 2.0 0.00 0.00 0.00 86 1008.0
20260508222357 54 234 1.0 2.0 0.00 0.00 0.00 85 1008.1
20260508221638 54 178 0.0 1.0 0.00 0.00 0.00 85 1008.2
20260508221546 54 0 0.0 1.0 0.00 0.00 0.00 100 1008.7
20260508221134 54 178 0.0 1.0 0.00 0.00 0.00 85 1008.2
20260508220639 54 117 0.0 1.0 0.00 0.00 0.00 85 1008.4
20260508220357 55 223 1.0 1.0 0.00 0.00 0.00 85 1008.3
20260508220041 54 153 0.0 1.0 0.00 0.00 0.00 100 1008.9
20260508215637 55 45 0.0 1.0 0.00 0.00 0.00 85 1008.4
20260508215347 55 45 0.0 1.0 0.00 0.00 0.00 84 1008.5
20260508215334 55 135 1.0 1.0 0.00 0.00 0.00 84 1008.4
20260508214537 55 0 0.0 0.0 0.00 0.00 0.00 100 1009.1
20260508214403 55 45 0.0 1.0 0.00 0.00 0.00 84 1008.6
20260508213637 55 178 0.0 1.0 0.00 0.00 0.00 84 1008.6
20260508213134 56 178 0.0 2.0 0.00 0.00 0.00 84 1008.6
20260508213035 55 0 0.0 1.0 0.00 0.00 0.00 100 1009.1
20260508212635 56 241 0.0 2.0 0.00 0.00 0.00 83 1008.6
20260508212134 56 1 0.0 2.0 0.00 0.00 0.00 83 1008.6
20260508211635 56 142 1.0 2.0 0.00 0.00 0.00 83 1008.7
20260508211538 56 0 0.0 1.0 0.00 0.00 0.00 100 1009.2
20260508211133 56 1 1.0 2.0 0.00 0.00 0.00 83 1008.8
20260508210634 56 89 1.0 2.0 0.00 0.00 0.00 82 1008.9
20260508210613 56 63 1.0 2.0 0.00 0.00 0.00 83 1009.0
20260508210039 56 68 0.0 1.0 0.00 0.00 0.00 99 1009.4
20260508205634 56 117 0.0 3.0 0.00 0.00 0.00 82 1008.9
20260508205359 57 135 1.0 3.0 0.00 0.00 0.00 82 1008.8
20260508204633 57 152 1.0 2.0 0.00 0.00 0.00 79 1008.8
20260508204538 57 153 0.0 1.0 0.00 0.00 0.00 99 1009.4
20260508204134 57 178 0.0 2.0 0.00 0.00 0.00 79 1008.8
20260508203632 57 223 0.0 2.0 0.00 0.00 0.00 79 1008.7
20260508203133 57 45 1.0 2.0 0.00 0.00 0.00 78 1008.7
20260508203035 57 120 1.0 4.0 0.00 0.00 0.00 98 1009.3
20260508202632 58 45 0.0 2.0 0.00 0.00 0.00 78 1008.7
20260508202132 58 45 1.0 2.0 0.00 0.00 0.00 77 1008.7
20260508201633 58 178 1.0 2.0 0.00 0.00 0.00 77 1008.6
20260508201537 57 68 1.0 1.0 0.00 0.00 0.00 95 1009.1
20260508201132 58 117 1.0 1.0 0.00 0.00 0.00 76 1008.6
20260508200858 58 45 1.0 1.0 0.00 0.00 0.00 75 1008.5
20260508200132 59 178 0.0 1.0 0.00 0.00 0.00 75 1008.4
20260508200045 59 0 0.0 1.0 0.00 0.00 0.00 95 1008.9
20260508195632 59 89 0.0 2.0 0.00 0.00 0.00 75 1008.4
20260508195132 59 223 0.0 2.0 0.00 0.00 0.00 75 1008.4
20260508194631 59 56 1.0 2.0 0.00 0.00 0.00 75 1008.4
20260508194541 59 0 0.0 1.0 0.00 0.00 0.00 95 1008.9
20260508194130 60 152 1.0 2.0 0.00 0.00 0.00 76 1008.5
20260508193631 60 178 0.0 2.0 0.00 0.00 0.00 76 1008.4
20260508193131 60 152 0.0 2.0 0.00 0.00 0.00 74 1008.3
20260508193040 59 162 1.0 2.0 0.00 0.00 0.00 71 1008.8
20260508192631 60 161 1.0 2.0 0.00 0.00 0.00 74 1008.4
20260508192131 60 63 1.0 2.0 0.00 0.00 0.00 73 1008.4
20260508191631 60 45 1.0 2.0 0.00 0.00 0.00 73 1008.5
20260508191539 60 137 0.0 1.0 0.00 0.00 0.00 71 1009.0
20260508191354 61 178 1.0 2.0 0.00 0.00 0.00 72 1008.5
20260508190631 61 223 1.0 2.0 0.00 0.00 0.00 72 1008.4
20260508190131 61 1 0.0 3.0 0.00 0.00 0.00 72 1008.5
20260508190042 60 0 0.0 2.0 0.00 0.00 0.00 71 1009.0
20260508185631 61 135 1.0 3.0 0.00 0.00 0.00 72 1008.4
20260508185131 61 38 1.0 2.0 0.00 0.00 0.00 73 1008.3
20260508184631 61 223 0.0 1.0 0.00 0.00 0.00 72 1008.3
20260508184539 61 0 0.0 2.0 0.00 0.00 0.00 91 1008.9
20260508184130 61 269 1.0 2.0 0.00 0.00 0.00 71 1008.2
20260508183630 61 89 0.0 2.0 0.00 0.00 0.00 71 1008.2
20260508183131 61 135 1.0 2.0 0.00 0.00 0.00 70 1008.2
20260508183039 61 265 1.0 2.0 0.00 0.00 0.00 91 1008.7
20260508182630 62 269 1.0 4.0 0.00 0.00 0.00 72 1008.2
20260508182131 62 63 1.0 4.0 0.00 0.00 0.00 71 1008.1
20260508181630 62 16 1.0 2.0 0.00 0.00 0.00 71 1008.0
20260508181539 61 93 0.0 1.0 0.00 0.00 0.00 91 1008.6
20260508181131 62 89 1.0 2.0 0.00 0.00 0.00 71 1008.1
20260508180629 61 45 1.0 2.0 0.00 0.00 0.00 70 1008.0
20260508180131 61 135 1.0 2.0 0.00 0.00 0.00 70 1008.0
20260508180039 61 165 1.0 3.0 0.00 0.00 0.00 89 1008.5
20260508175855 61 45 1.0 2.0 0.00 0.00 0.00 71 1007.9
20260508175131 61 283 1.0 2.0 0.00 0.00 0.00 70 1007.9
20260508174629 61 63 1.0 3.0 0.00 0.00 0.00 70 1008.0
20260508174539 61 265 1.0 2.0 0.00 0.00 0.00 89 1008.4
20260508174131 61 124 1.0 4.0 0.00 0.00 0.00 70 1007.9
20260508173630 61 145 2.0 4.0 0.00 0.00 0.00 69 1008.0
20260508173130 62 206 2.0 4.0 0.00 0.00 0.00 71 1008.1
20260508173037 62 153 1.0 5.0 0.00 0.00 0.00 92 1008.5
20260508172629 62 241 2.0 5.0 0.00 0.00 0.00 71 1008.0
20260508172129 62 164 2.0 5.0 0.00 0.00 0.00 72 1008.0
20260508171628 62 223 1.0 3.0 0.00 0.00 0.00 72 1008.1
20260508171533 62 0 1.0 2.0 0.00 0.00 0.00 92 1008.7
20260508171129 62 45 1.0 3.0 0.00 0.00 0.00 72 1008.1
20260508170628 62 165 1.0 3.0 0.00 0.00 0.00 71 1008.1
20260508170130 62 223 1.0 2.0 0.00 0.00 0.00 72 1008.1
20260508170036 62 215 0.0 1.0 0.00 0.00 0.00 92 1008.6
20260508165628 62 165 0.0 2.0 0.00 0.00 0.00 73 1008.1
20260508165129 62 1 1.0 3.0 0.00 0.00 0.00 73 1008.1
20260508164628 62 140 2.0 3.0 0.00 0.00 0.00 72 1008.1
20260508164538 61 137 1.0 2.0 0.00 0.00 0.00 91 1008.6
20260508164129 62 178 2.0 3.0 0.00 0.00 0.00 71 1008.1
20260508163901 62 234 1.0 3.0 0.00 0.00 0.00 71 1008.1
20260508163129 62 223 2.0 3.0 0.00 0.00 0.00 71 1008.1
20260508163034 61 247 1.0 2.0 0.00 0.00 0.00 71 1008.7
20260508162852 62 234 1.0 2.0 0.00 0.00 0.00 72 1008.1
20260508162128 62 45 1.0 3.0 0.00 0.00 0.00 74 1008.1
20260508161627 62 149 1.0 6.0 0.00 0.00 0.00 73 1008.2
20260508161533 61 265 1.0 3.0 0.00 0.00 0.00 71 1008.7
20260508161128 62 269 2.0 6.0 0.00 0.00 0.00 72 1008.1
20260508160627 62 231 0.0 2.0 0.00 0.00 0.00 74 1008.2
20260508160128 62 152 1.0 2.0 0.00 0.00 0.00 74 1008.3
20260508160037 61 38 1.0 2.0 0.00 0.00 0.00 93 1008.8
20260508155627 61 314 1.0 3.0 0.00 0.00 0.00 74 1008.2
20260508155348 61 178 1.0 3.0 0.00 0.00 0.00 73 1008.3
20260508154627 61 1 1.0 5.0 0.00 0.00 0.00 73 1008.3
20260508154536 61 200 1.0 5.0 0.00 0.00 0.00 93 1008.9
20260508154128 61 283 2.0 5.0 0.00 0.00 0.00 72 1008.4
20260508153627 61 159 2.0 5.0 0.00 0.00 0.00 73 1008.3
20260508153127 62 223 1.0 3.0 0.00 0.00 0.00 74 1008.3
20260508153107 61 269 1.0 4.0 0.00 0.00 0.00 74 1008.3
20260508153041 60 41 1.0 2.0 0.00 0.00 0.00 93 1008.7
20260508152127 61 223 1.0 4.0 0.00 0.00 0.00 74 1008.3
20260508151626 61 135 2.0 4.0 0.00 0.00 0.00 73 1008.3
20260508151539 60 221 1.0 3.0 0.00 0.00 0.00 93 1008.8
20260508151127 61 178 2.0 4.0 0.00 0.00 0.00 73 1008.3
20260508150846 61 45 1.0 3.0 0.00 0.00 0.00 73 1008.4
20260508150358 61 237 1.0 2.0 0.00 0.00 0.00 73 1008.3
20260508150042 60 221 1.0 2.0 0.00 0.00 0.00 93 1008.9
20260508145626 61 269 1.0 2.0 0.00 0.00 0.00 74 1008.4
20260508145352 60 269 1.0 4.0 0.00 0.00 0.00 71 1008.4
20260508144848 60 161 2.0 4.0 0.00 0.00 0.00 70 1008.5
20260508144538 60 221 1.0 2.0 0.00 0.00 0.00 81 1009.1
20260508144127 61 220 2.0 3.0 0.00 0.00 0.00 71 1008.5
20260508143626 60 257 1.0 3.0 0.00 0.00 0.00 70 1008.5
20260508143126 61 223 2.0 4.0 0.00 0.00 0.00 69 1008.6
20260508143036 60 201 1.0 3.0 0.00 0.00 0.00 81 1009.1
20260508142625 61 230 2.0 4.0 0.00 0.00 0.00 70 1008.6
20260508142607 61 220 1.0 4.0 0.00 0.00 0.00 69 1008.5
20260508141625 61 241 2.0 6.0 0.00 0.00 0.00 69 1008.5
20260508141537 60 196 1.0 3.0 0.00 0.00 0.00 81 1009.1
20260508141126 61 269 2.0 6.0 0.00 0.00 0.00 69 1008.7
20260508140624 61 213 2.0 4.0 0.00 0.00 0.00 68 1008.7
20260508140126 61 228 2.0 4.0 0.00 0.00 0.00 69 1008.6
20260508140041 60 232 2.0 4.0 0.00 0.00 0.00 81 1009.2
20260508135624 61 234 1.0 6.0 0.00 0.00 0.00 69 1008.7
20260508135126 61 237 2.0 6.0 0.00 0.00 0.00 75 1008.7
20260508134624 60 223 2.0 4.0 0.00 0.00 0.00 76 1008.7
20260508134539 60 239 1.0 2.0 0.00 0.00 0.00 81 1009.2
20260508134125 60 228 2.0 4.0 0.00 0.00 0.00 77 1008.8
20260508133623 60 309 0.0 3.0 0.00 0.00 0.00 77 1008.8
20260508133125 60 237 1.0 4.0 0.00 0.00 0.00 79 1008.8
20260508133038 60 221 1.0 2.0 0.00 0.00 0.00 81 1009.4
20260508132624 60 230 1.0 4.0 0.00 0.00 0.00 79 1008.9
20260508132125 60 230 2.0 3.0 0.00 0.00 0.00 77 1008.8
20260508131624 61 223 1.0 3.0 0.00 0.00 0.00 76 1008.9
20260508131537 61 205 1.0 2.0 0.00 0.00 0.00 81 1009.3
20260508131124 62 230 2.0 3.0 0.00 0.00 0.00 75 1008.8
20260508130851 62 213 1.0 6.0 0.00 0.00 0.00 74 1008.7
20260508130351 62 230 2.0 6.0 0.00 0.00 0.00 68 1008.7
20260508130103 63 243 2.0 4.0 0.00 0.00 0.00 81 1009.2
20260508125623 63 247 2.0 4.0 0.00 0.00 0.00 67 1008.6
20260508125125 63 148 1.0 2.0 0.00 0.00 0.00 64 1008.5
20260508124847 63 202 1.0 2.0 0.00 0.00 0.00 63 1008.3
20260508124539 64 217 0.0 3.0 0.00 0.00 0.00 81 1008.8
20260508124124 64 193 1.0 4.0 0.00 0.00 0.00 62 1008.2
20260508123622 64 217 1.0 4.0 0.00 0.00 0.00 62 1008.2
20260508123123 64 241 1.0 3.0 0.00 0.00 0.00 63 1008.1
20260508123038 64 221 1.0 2.0 0.00 0.00 0.00 82 1008.6
20260508122622 64 223 2.0 4.0 0.00 0.00 0.00 62 1008.1
20260508122343 64 213 1.0 6.0 0.00 0.00 0.00 63 1008.3
20260508121622 64 230 1.0 6.0 0.00 0.00 0.00 63 1008.2
20260508121537 64 217 2.0 5.0 0.00 0.00 0.00 63 1008.7
20260508121122 64 210 2.0 3.0 0.00 0.00 0.00 62 1008.3
20260508120621 64 223 2.0 3.0 0.00 0.00 0.00 63 1008.3
20260508120123 64 223 1.0 4.0 0.00 0.00 0.00 64 1008.4
20260508120035 64 34 0.0 3.0 0.00 0.00 0.00 86 1008.9
20260508115621 64 209 2.0 5.0 0.00 0.00 0.00 64 1008.4
20260508115122 64 216 2.0 5.0 0.00 0.00 0.00 63 1008.3
20260508114851 64 189 2.0 5.0 0.00 0.00 0.00 66 1008.4
20260508114541 64 265 1.0 4.0 0.00 0.00 0.00 86 1008.9
20260508114123 64 157 2.0 5.0 0.00 0.00 0.00 67 1008.3
20260508113622 64 241 1.0 3.0 0.00 0.00 0.00 65 1008.2
20260508113348 64 269 2.0 4.0 0.00 0.00 0.00 67 1008.2
20260508113043 64 164 1.0 4.0 0.00 0.00 0.00 70 1008.8
20260508112620 64 135 2.0 6.0 0.00 0.00 0.00 68 1008.2
20260508112122 64 135 2.0 6.0 0.00 0.00 0.00 68 1008.3
20260508111620 63 314 1.0 3.0 0.00 0.00 0.00 71 1008.3
20260508111539 61 64 1.0 3.0 0.00 0.00 0.00 71 1008.9
20260508111121 63 228 2.0 5.0 0.00 0.00 0.00 71 1008.4
20260508110840 62 45 2.0 5.0 0.00 0.00 0.00 70 1008.6
20260508110121 62 135 1.0 5.0 0.00 0.00 0.00 71 1008.7
20260508110040 61 0 1.0 3.0 0.00 0.00 0.00 71 1009.1
20260508105838 62 128 2.0 3.0 0.00 0.00 0.00 72 1008.6
20260508105121 62 168 2.0 7.0 0.00 0.00 0.00 73 1008.6
20260508104620 62 223 3.0 7.0 0.00 0.00 0.00 73 1008.7
20260508104602 61 0 1.0 2.0 0.00 0.00 0.00 93 1009.2
20260508104121 61 241 2.0 3.0 0.00 0.00 0.00 74 1008.7
20260508103842 61 206 1.0 5.0 0.00 0.00 0.00 74 1008.8
20260508103121 61 135 2.0 5.0 0.00 0.00 0.00 73 1008.8
20260508103044 60 157 2.0 4.0 0.00 0.00 0.00 92 1009.3
20260508102620 61 178 1.0 2.0 0.00 0.00 0.00 75 1008.8
20260508102121 61 145 1.0 4.0 0.00 0.00 0.00 76 1008.7
20260508102102 61 245 2.0 4.0 0.00 0.00 0.00 76 1008.6
20260508101538 60 196 1.0 3.0 0.00 0.00 0.00 75 1009.2
20260508101121 60 164 2.0 3.0 0.00 0.00 0.00 76 1008.7
20260508100619 60 152 1.0 4.0 0.00 0.00 0.00 77 1008.7
20260508100340 60 196 2.0 4.0 0.00 0.00 0.00 77 1008.6
20260508100039 59 137 1.0 4.0 0.00 0.00 0.00 76 1009.0
20260508095836 60 142 2.0 3.0 0.00 0.00 0.00 78 1008.6
20260508095349 59 234 1.0 3.0 0.00 0.00 0.00 76 1008.6
20260508094619 59 178 2.0 3.0 0.00 0.00 0.00 76 1008.6
20260508094544 59 169 1.0 2.0 0.00 0.00 0.00 76 1009.1
20260508094120 59 269 2.0 3.0 0.00 0.00 0.00 76 1008.6
20260508093618 59 178 1.0 3.0 0.00 0.00 0.00 79 1008.6
20260508093120 59 206 1.0 3.0 0.00 0.00 0.00 79 1008.6
20260508093037 58 205 1.0 2.0 0.00 0.00 0.00 79 1009.1
20260508092619 58 89 1.0 4.0 0.00 0.00 0.00 80 1008.7
20260508092119 58 137 2.0 4.0 0.00 0.00 0.00 80 1008.6
20260508091619 58 206 2.0 3.0 0.00 0.00 0.00 82 1008.6
20260508091535 57 229 1.0 2.0 0.00 0.00 0.00 100 1009.1
20260508091119 57 178 1.0 3.0 0.00 0.00 0.00 83 1008.6
20260508090618 57 152 1.0 3.0 0.00 0.00 0.00 84 1008.5
20260508090349 57 1 1.0 3.0 0.00 0.00 0.00 84 1008.5
20260508090050 56 0 0.0 2.0 0.00 0.00 0.00 100 1009.0
20260508085618 57 1 1.0 3.0 0.00 0.00 0.00 84 1008.6
20260508085119 56 269 1.0 3.0 0.00 0.00 0.00 85 1008.6
20260508085109 56 223 1.0 3.0 0.00 0.00 0.00 85 1008.6
20260508084540 56 142 2.0 2.0 0.00 0.00 0.00 100 1009.1
20260508084118 56 178 1.0 3.0 0.00 0.00 0.00 86 1008.6
20260508083836 56 223 1.0 3.0 0.00 0.00 0.00 85 1008.3
20260508083118 56 51 2.0 3.0 0.00 0.00 0.00 86 1008.2
20260508083056 55 64 0.0 2.0 0.00 0.00 0.00 100 1008.8
20260508082617 56 109 1.0 3.0 0.00 0.00 0.00 87 1008.4
20260508082118 56 28 1.0 3.0 0.00 0.00 0.00 87 1008.4
20260508081617 55 145 1.0 3.0 0.00 0.00 0.00 87 1008.5
20260508081552 55 93 1.0 1.0 0.00 0.00 0.00 100 1008.9
20260508081118 55 241 1.0 2.0 0.00 0.00 0.00 88 1008.6
20260508080833 55 314 1.0 2.0 0.00 0.00 0.00 88 1008.6
20260508080117 55 145 1.0 2.0 0.00 0.00 0.00 88 1008.5
20260508080041 54 0.0 1.0 0.00 0.00 0.00 100 1009.0
20260508075616 55 216 1.0 3.0 0.00 0.00 0.00 88 1008.5
20260508075117 55 269 1.0 3.0 0.00 0.00 0.00 88 1008.2
20260508074835 55 1 2.0 2.0 0.00 0.00 0.00 88 1008.3
20260508074534 54 61 1.0 3.0 0.00 0.00 0.00 100 1008.8
20260508074117 54 89 1.0 4.0 0.00 0.00 0.00 88 1008.4
20260508073616 54 135 1.0 4.0 0.00 0.00 0.00 88 1008.4
20260508073117 54 104 2.0 3.0 0.00 0.00 0.00 88 1008.4
20260508073036 54 61 2.0 2.0 0.00 0.00 0.00 100 1008.9
20260508072616 54 1 1.0 4.0 0.00 0.00 0.00 89 1008.4
20260508072117 54 140 2.0 4.0 0.00 0.00 0.00 89 1008.5
20260508071616 54 45 1.0 3.0 0.00 0.00 0.00 89 1008.5
20260508071536 53 51 1.0 2.0 0.00 0.00 0.00 100 1008.9
20260508071117 54 56 1.0 3.0 0.00 0.00 0.00 89 1008.5
20260508070615 54 223 2.0 3.0 0.00 0.00 0.00 89 1008.4
20260508070124 53 57 1.0 3.0 0.00 0.00 0.00 100 1008.9
20260508070117 53 197 1.0 3.0 0.00 0.00 0.00 89 1008.4
20260508065615 53 168 2.0 3.0 0.00 0.00 0.00 89 1008.4
20260508065116 53 89 1.0 2.0 0.00 0.00 0.00 89 1008.3
20260508064835 53 178 1.0 3.0 0.00 0.00 0.00 89 1008.2
20260508064540 53 0 1.0 2.0 0.00 0.00 0.00 100 1008.7
20260508064116 53 157 1.0 4.0 0.00 0.00 0.00 89 1008.2
20260508063836 53 124 2.0 4.0 0.00 0.00 0.00 89 1008.2
20260508063115 53 45 1.0 1.0 0.00 0.00 0.00 89 1008.2
20260508063038 53 239 0.0 1.0 0.00 0.00 0.00 100 1008.6